Fort Rucker / Ozark, AL

6:57 PM CDT on August 22, 2017 (GMT -0500)
Fort Rucker / Ozark

Weather History for KLOR - March, 2013

Change the Weather History Date:

Monday, March 11, 2013

  Actual Average (KOZR) Record (KOZR)
Temperature  
Mean Temperature 60 °F -  
Max Temperature 70 °F 66 °F 82 °F (2006)
Min Temperature 50 °F 45 °F 26 °F (1998)
Degree Days  
Heating Degree Days 5    
Growing Degree Days 10 (Base 50)    
Moisture  
Dew Point 54 °F    
Average Humidity 86    
Maximum Humidity 94    
Minimum Humidity 61    
Precipitation  
Precipitation 1.38 in - - ()
Sea Level Pressure  
Sea Level Pressure 29.87 in    
Wind  
Wind Speed 6 mph (NNW)    
Max Wind Speed 17 mph    
Max Gust Speed 26 mph    
Visibility 6 miles    
Events Fog , Rain    
Averages and records for this station are not official NWS values.
T = Trace of Precipitation, MM = Missing Value Source: NWS Daily Summary

Daily Weather History Graph

Daily Weather History Graph

Search for Another Location

Airport or City:

Trip Planner

Search our weather history database for the weather conditions in past years. The results will help you decide how hot, cold, wet, or windy it might be!

Date:

Astronomy

Mar. 11, 2013 Rise Set
Actual Time 6:57 AM CDT 6:48 PM CDT
Civil Twilight 6:33 AM CDT 7:12 PM CDT
Nautical Twilight 6:05 AM CDT 7:40 PM CDT
Astronomical Twilight 5:37 AM CDT 8:09 PM CDT
Moon 6:32 AM CDT (3/11) 6:56 PM CDT (3/11)
Length of Visible Light 12h 39m
Length of Day
11h 50m
Waning Crescent, 0% of the Moon is Illuminated
Mar 11
Waning Crescent
Mar 11
New
Mar 19
First Quarter
Mar 27
Full
Apr 2
Last Quarter

Hourly Weather History & Observations

Time (CDT) Temp. Dew Point Humidity Pressure Visibility Wind Dir Wind Speed Gust Speed Precip Events Conditions
12:53 AM 57.0 °F 48.9 °F 74% 30.01 in 10.0 mi Calm Calm - N/A   Clear
1:53 AM 57.0 °F 50.0 °F 77% 29.99 in 10.0 mi SSE 3.5 mph - N/A   Clear
2:53 AM 57.0 °F 50.0 °F 77% 29.96 in 10.0 mi SSE 3.5 mph - N/A   Clear
3:53 AM 57.0 °F 50.0 °F 77% 29.95 in 10.0 mi South 3.5 mph - N/A   Clear
4:53 AM 54.0 °F 50.0 °F 86% 29.96 in 10.0 mi Calm Calm - N/A   Mostly Cloudy
5:53 AM 54.0 °F 51.1 °F 90% 29.97 in 10.0 mi Calm Calm - N/A   Overcast
6:53 AM 55.0 °F 50.0 °F 83% 29.98 in 10.0 mi Calm Calm - N/A   Mostly Cloudy
7:53 AM 57.0 °F 51.1 °F 81% 29.96 in 10.0 mi Variable 4.6 mph - N/A   Mostly Cloudy
8:53 AM 61.0 °F 52.0 °F 72% 29.96 in 10.0 mi SSE 8.1 mph - N/A   Mostly Cloudy
9:53 AM 64.0 °F 54.0 °F 70% 29.93 in 10.0 mi SSE 9.2 mph 17.3 mph N/A   Partly Cloudy
10:53 AM 68.0 °F 55.9 °F 65% 29.91 in 10.0 mi South 9.2 mph 19.6 mph N/A   Clear
11:53 AM 70.0 °F 55.9 °F 61% 29.88 in 10.0 mi South 16.1 mph 26.5 mph N/A   Mostly Cloudy
12:53 PM 69.1 °F 57.0 °F 65% 29.87 in 10.0 mi South 17.3 mph 24.2 mph N/A   Overcast
1:11 PM 69.8 °F 57.2 °F 64% 29.87 in 10.0 mi South 8.1 mph 19.6 mph N/A   Overcast
1:53 PM 70.0 °F 57.9 °F 65% 29.81 in 10.0 mi South 10.4 mph - N/A   Overcast
2:53 PM 64.9 °F 62.1 °F 90% 29.82 in 1.0 mi WNW 12.7 mph 18.4 mph 0.18 in Rain Heavy Rain
3:00 PM 62.6 °F 60.8 °F 94% 29.82 in 0.5 mi NW 12.7 mph 20.7 mph 0.18 in Fog , Rain Heavy Rain
3:08 PM 60.8 °F 59.0 °F 94% 29.82 in 1.0 mi NW 15.0 mph - 0.26 in Rain Heavy Rain
3:30 PM 59.0 °F 57.2 °F 94% 29.85 in 1.0 mi NW 12.7 mph - 0.49 in Rain Heavy Rain
3:53 PM 57.9 °F 55.9 °F 93% 29.82 in 2.0 mi NNE 3.5 mph - 0.66 in Rain Heavy Rain
4:15 PM 57.2 °F 55.4 °F 94% 29.83 in 1.0 mi North 5.8 mph - 0.13 in Rain Heavy Rain
4:25 PM 57.2 °F 55.4 °F 94% 29.83 in 3.0 mi North 3.5 mph - 0.15 in Rain Rain
4:33 PM 57.2 °F 55.4 °F 94% 29.84 in 1.8 mi NW 6.9 mph - 0.19 in Rain Heavy Rain
4:47 PM 57.2 °F 55.4 °F 94% 29.84 in 1.0 mi Calm Calm - 0.28 in Rain Heavy Rain
4:53 PM 57.9 °F 55.9 °F 93% 29.83 in 1.2 mi NE 3.5 mph - 0.31 in Rain Heavy Rain
5:03 PM 57.2 °F 55.4 °F 94% 29.83 in 2.5 mi NNE 5.8 mph - 0.03 in Rain Rain
5:07 PM 57.2 °F 55.4 °F 94% 29.82 in 3.0 mi NE 3.5 mph - 0.03 in Rain Light Rain
5:20 PM 57.2 °F 55.4 °F 94% 29.82 in 1.8 mi NNE 4.6 mph - 0.06 in Rain Rain
5:31 PM 57.2 °F 55.4 °F 94% 29.82 in 2.0 mi NE 3.5 mph - 0.09 in Rain Rain
5:53 PM 57.0 °F 55.0 °F 93% 29.81 in 4.0 mi ENE 4.6 mph - 0.12 in Rain Light Rain
6:14 PM 57.2 °F 55.4 °F 94% 29.82 in 2.5 mi Variable 4.6 mph 26.5 mph 0.04 in Rain Light Rain
6:21 PM 57.2 °F 55.4 °F 94% 29.83 in 1.0 mi NW 8.1 mph 26.5 mph 0.08 in Rain Heavy Rain
6:33 PM 57.2 °F 55.4 °F 94% 29.83 in 3.0 mi NW 4.6 mph - 0.10 in Rain Light Rain
6:53 PM 57.0 °F 55.0 °F 93% 29.83 in 10.0 mi NW 4.6 mph - 0.10 in   Overcast
7:12 PM 57.2 °F 55.4 °F 94% 29.83 in 10.0 mi NW 4.6 mph - 0.00 in Rain Light Rain
7:53 PM 57.0 °F 54.0 °F 89% 29.83 in 9.0 mi NNW 4.6 mph - 0.01 in   Overcast
8:18 PM 55.4 °F 53.6 °F 94% 29.85 in 7.0 mi NNW 8.1 mph - 0.00 in Rain Light Rain
8:44 PM 55.4 °F 53.6 °F 94% 29.86 in 4.0 mi NW 9.2 mph - 0.00 in   Overcast
8:53 PM 54.0 °F 52.0 °F 93% 29.86 in 3.0 mi NW 13.8 mph - 0.00 in   Overcast
9:07 PM 53.6 °F 51.8 °F 94% 29.87 in 2.5 mi NNW 11.5 mph 19.6 mph N/A   Overcast
9:19 PM 53.6 °F 50.0 °F 88% 29.87 in 4.0 mi NNW 12.7 mph 19.6 mph N/A   Overcast
9:53 PM 51.1 °F 48.0 °F 89% 29.87 in 10.0 mi NNW 11.5 mph 18.4 mph N/A   Overcast
10:06 PM 51.8 °F 46.4 °F 82% 29.89 in 10.0 mi NNW 8.1 mph 17.3 mph N/A   Overcast
10:53 PM 50.0 °F 46.9 °F 89% 29.90 in 10.0 mi NNW 6.9 mph - N/A   Overcast
11:01 PM 50.0 °F 46.4 °F 87% 29.90 in 10.0 mi NNW 9.2 mph - N/A   Overcast
11:53 PM 50.0 °F 45.0 °F 83% 29.91 in 10.0 mi NNW 9.2 mph 17.3 mph N/A   Overcast